Wetterdaten: Dienstag, 11.11.2014
Datum Zeit Temperatur Luftfeuchte Luftdruck Regen Wind Richtung Richtung Taupunkt Windchill Windben
11.11.2014 00:00 4,1 C 93 % 1013,4 hPa 0,0 l/m 0,0 km/h (0 Bft) SO 135 3,1 C 7,8 C 0,0 km/h (0 Bft)
11.11.2014 00:05 3,9 C 94 % 1013,4 hPa 0,0 l/m 0,0 km/h (0 Bft) SO 135 3,0 C 7,8 C 0,0 km/h (0 Bft)
11.11.2014 00:10 3,7 C 94 % 1013,4 hPa 0,0 l/m 0,0 km/h (0 Bft) SO 135 2,8 C 7,8 C 0,0 km/h (0 Bft)
11.11.2014 00:15 3,7 C 94 % 1013,4 hPa 0,0 l/m 0,0 km/h (0 Bft) SO 135 2,8 C 7,8 C 0,0 km/h (0 Bft)
11.11.2014 00:20 3,7 C 94 % 1013,4 hPa 0,0 l/m 0,0 km/h (0 Bft) SO 135 2,8 C 7,8 C 0,0 km/h (0 Bft)
11.11.2014 00:25 3,7 C 94 % 1013,4 hPa 0,0 l/m 0,0 km/h (0 Bft) SO 135 2,8 C 7,8 C 0,0 km/h (0 Bft)
11.11.2014 00:30 3,8 C 94 % 1013,4 hPa 0,0 l/m 0,0 km/h (0 Bft) SO 135 2,9 C 7,8 C 0,0 km/h (0 Bft)
11.11.2014 00:35 3,8 C 94 % 1013,2 hPa 0,0 l/m 0,0 km/h (0 Bft) SO 135 2,9 C 7,8 C 0,0 km/h (0 Bft)
11.11.2014 00:40 3,7 C 94 % 1013,2 hPa 0,0 l/m 0,0 km/h (0 Bft) SO 135 2,8 C 7,8 C 0,0 km/h (0 Bft)
11.11.2014 00:45 3,7 C 93 % 1013,2 hPa 0,0 l/m 0,0 km/h (0 Bft) SO 135 2,7 C 7,8 C 0,0 km/h (0 Bft)
11.11.2014 00:50 3,7 C 93 % 1013,2 hPa 0,0 l/m 0,0 km/h (0 Bft) SO 135 2,7 C 7,8 C 0,0 km/h (0 Bft)
11.11.2014 00:56 3,7 C 94 % 1013,1 hPa 0,0 l/m 0,0 km/h (0 Bft) SO 135 2,8 C 7,8 C 0,0 km/h (0 Bft)
11.11.2014 00:57 3,7 C 94 % 1013,1 hPa 0,0 l/m 0,0 km/h (0 Bft) SO 135 2,8 C 7,8 C 0,0 km/h (0 Bft)
11.11.2014 01:00 3,7 C 94 % 1013,1 hPa 0,0 l/m 0,0 km/h (0 Bft) SO 135 2,8 C 7,8 C 0,0 km/h (0 Bft)
11.11.2014 01:05 3,9 C 94 % 1013,1 hPa 0,0 l/m 0,0 km/h (0 Bft) SO 135 3,0 C 7,8 C 0,0 km/h (0 Bft)
11.11.2014 01:10 4,2 C 94 % 1013,1 hPa 0,0 l/m 0,0 km/h (0 Bft) SO 135 3,3 C 7,8 C 0,0 km/h (0 Bft)
11.11.2014 01:15 4,1 C 94 % 1012,9 hPa 0,0 l/m 0,0 km/h (0 Bft) SO 135 3,2 C 7,8 C 0,0 km/h (0 Bft)
11.11.2014 01:20 3,9 C 94 % 1012,9 hPa 0,0 l/m 0,0 km/h (0 Bft) SO 135 3,0 C 7,8 C 0,0 km/h (0 Bft)
11.11.2014 01:25 4,1 C 94 % 1012,9 hPa 0,0 l/m 0,0 km/h (0 Bft) SO 135 3,2 C 7,8 C 0,0 km/h (0 Bft)
11.11.2014 01:30 4,1 C 94 % 1012,9 hPa 0,0 l/m 0,0 km/h (0 Bft) SO 135 3,2 C 7,8 C 0,0 km/h (0 Bft)
11.11.2014 01:35 3,8 C 94 % 1012,8 hPa 0,0 l/m 0,0 km/h (0 Bft) SO 135 2,9 C 7,8 C 0,0 km/h (0 Bft)
11.11.2014 01:40 3,9 C 94 % 1012,8 hPa 0,0 l/m 0,0 km/h (0 Bft) SO 135 3,0 C 7,8 C 0,0 km/h (0 Bft)
11.11.2014 01:45 3,9 C 94 % 1012,8 hPa 0,0 l/m 0,0 km/h (0 Bft) SO 135 3,0 C 7,8 C 0,0 km/h (0 Bft)
11.11.2014 01:50 3,9 C 94 % 1012,8 hPa 0,0 l/m 0,0 km/h (0 Bft) SO 135 3,0 C 7,8 C 0,0 km/h (0 Bft)
11.11.2014 01:55 3,9 C 94 % 1012,4 hPa 0,0 l/m 0,0 km/h (0 Bft) SO 135 3,0 C 7,8 C 0,0 km/h (0 Bft)
11.11.2014 02:00 3,9 C 94 % 1012,4 hPa 0,0 l/m 0,0 km/h (0 Bft) SO 135 3,0 C 7,8 C 0,0 km/h (0 Bft)
11.11.2014 02:05 4,0 C 94 % 1012,4 hPa 0,0 l/m 0,0 km/h (0 Bft) SO 135 3,1 C 7,8 C 0,0 km/h (0 Bft)
11.11.2014 02:10 4,0 C 94 % 1012,4 hPa 0,0 l/m 0,0 km/h (0 Bft) SO 135 3,1 C 7,8 C 0,0 km/h (0 Bft)
11.11.2014 02:15 4,1 C 94 % 1012,2 hPa 0,0 l/m 0,0 km/h (0 Bft) SO 135 3,2 C 7,8 C 0,0 km/h (0 Bft)
11.11.2014 02:20 4,1 C 94 % 1012,2 hPa 0,0 l/m 0,0 km/h (0 Bft) SO 135 3,2 C 7,8 C 0,0 km/h (0 Bft)
11.11.2014 02:25 4,1 C 94 % 1012,2 hPa 0,0 l/m 0,0 km/h (0 Bft) SO 135 3,2 C 7,8 C 0,0 km/h (0 Bft)
11.11.2014 02:30 4,3 C 94 % 1012,2 hPa 0,0 l/m 0,0 km/h (0 Bft) SO 135 3,4 C 7,8 C 0,0 km/h (0 Bft)
11.11.2014 02:35 4,2 C 94 % 1012,1 hPa 0,0 l/m 0,0 km/h (0 Bft) SO 135 3,3 C 7,8 C 0,0 km/h (0 Bft)
11.11.2014 02:40 4,2 C 94 % 1012,1 hPa 0,0 l/m 0,0 km/h (0 Bft) SO 135 3,3 C 7,8 C 0,0 km/h (0 Bft)
11.11.2014 02:45 4,2 C 94 % 1012,1 hPa 0,0 l/m 0,0 km/h (0 Bft) SO 135 3,3 C 7,8 C 0,0 km/h (0 Bft)
11.11.2014 02:50 4,2 C 94 % 1012,1 hPa 0,0 l/m 0,0 km/h (0 Bft) SO 135 3,3 C 7,8 C 0,0 km/h (0 Bft)
11.11.2014 02:55 4,2 C 94 % 1012,1 hPa 0,0 l/m 0,0 km/h (0 Bft) SO 135 3,3 C 7,8 C 0,0 km/h (0 Bft)
11.11.2014 03:00 4,2 C 94 % 1012,1 hPa 0,0 l/m 0,0 km/h (0 Bft) SO 135 3,3 C 7,8 C 0,0 km/h (0 Bft)
11.11.2014 03:05 4,2 C 94 % 1012,1 hPa 0,0 l/m 0,0 km/h (0 Bft) SO 135 3,3 C 7,8 C 0,0 km/h (0 Bft)
11.11.2014 03:10 4,2 C 94 % 1012,1 hPa 0,0 l/m 0,0 km/h (0 Bft) SO 135 3,3 C 7,8 C 0,0 km/h (0 Bft)
11.11.2014 03:15 4,2 C 94 % 1012,1 hPa 0,0 l/m 0,0 km/h (0 Bft) SO 135 3,3 C 7,8 C 0,0 km/h (0 Bft)
11.11.2014 03:20 4,2 C 94 % 1012,1 hPa 0,0 l/m 0,0 km/h (0 Bft) SO 135 3,3 C 7,8 C 0,0 km/h (0 Bft)
11.11.2014 03:25 4,3 C 94 % 1012,1 hPa 0,0 l/m 0,0 km/h (0 Bft) SO 135 3,4 C 7,8 C 0,0 km/h (0 Bft)
11.11.2014 03:30 4,2 C 94 % 1012,1 hPa 0,0 l/m 0,0 km/h (0 Bft) SO 135 3,3 C 7,8 C 0,0 km/h (0 Bft)
11.11.2014 03:35 4,2 C 94 % 1012,2 hPa 0,0 l/m 0,0 km/h (0 Bft) SO 135 3,3 C 7,8 C 0,0 km/h (0 Bft)
11.11.2014 03:40 4,3 C 94 % 1012,2 hPa 0,0 l/m 0,0 km/h (0 Bft) SO 135 3,4 C 7,8 C 0,0 km/h (0 Bft)
11.11.2014 03:45 4,3 C 94 % 1012,2 hPa 0,0 l/m 0,0 km/h (0 Bft) SO 135 3,4 C 7,8 C 0,0 km/h (0 Bft)
11.11.2014 03:50 4,3 C 94 % 1012,2 hPa 0,0 l/m 0,0 km/h (0 Bft) SO 135 3,4 C 7,8 C 0,0 km/h (0 Bft)
11.11.2014 03:55 4,3 C 94 % 1012,1 hPa 0,0 l/m 0,0 km/h (0 Bft) SO 135 3,4 C 7,8 C 0,0 km/h (0 Bft)
11.11.2014 04:00 4,3 C 94 % 1012,1 hPa 0,0 l/m 0,0 km/h (0 Bft) SO 135 3,4 C 7,8 C 0,0 km/h (0 Bft)
11.11.2014 04:05 4,3 C 94 % 1012,1 hPa 0,0 l/m 0,0 km/h (0 Bft) SO 135 3,4 C 7,8 C 0,0 km/h (0 Bft)
11.11.2014 04:10 4,3 C 94 % 1012,1 hPa 0,0 l/m 0,0 km/h (0 Bft) SO 135 3,4 C 7,8 C 0,0 km/h (0 Bft)
11.11.2014 04:15 4,3 C 94 % 1012,2 hPa 0,0 l/m 0,0 km/h (0 Bft) SO 135 3,4 C 7,8 C 0,0 km/h (0 Bft)
11.11.2014 04:20 4,4 C 94 % 1012,2 hPa 0,0 l/m 0,0 km/h (0 Bft) SO 135 3,5 C 7,8 C 0,0 km/h (0 Bft)
11.11.2014 04:25 4,3 C 94 % 1012,2 hPa 0,0 l/m 0,0 km/h (0 Bft) SO 135 3,4 C 7,8 C 0,0 km/h (0 Bft)
11.11.2014 04:30 4,3 C 94 % 1012,2 hPa 0,0 l/m 0,0 km/h (0 Bft) SO 135 3,4 C 7,8 C 0,0 km/h (0 Bft)
11.11.2014 04:35 4,3 C 94 % 1012,2 hPa 0,0 l/m 0,0 km/h (0 Bft) SO 135 3,4 C 7,8 C 0,0 km/h (0 Bft)
11.11.2014 04:40 4,3 C 94 % 1012,2 hPa 0,0 l/m 0,0 km/h (0 Bft) SO 135 3,4 C 7,8 C 0,0 km/h (0 Bft)
11.11.2014 04:45 4,4 C 94 % 1012,2 hPa 0,0 l/m 0,0 km/h (0 Bft) SO 135 3,5 C 7,8 C 0,0 km/h (0 Bft)
11.11.2014 04:50 4,3 C 94 % 1012,2 hPa 0,0 l/m 0,0 km/h (0 Bft) SO 135 3,4 C 7,8 C 0,0 km/h (0 Bft)
11.11.2014 04:55 4,3 C 94 % 1012,1 hPa 0,0 l/m 0,0 km/h (0 Bft) SO 135 3,4 C 7,8 C 0,0 km/h (0 Bft)
11.11.2014 05:00 4,3 C 94 % 1012,1 hPa 0,0 l/m 0,0 km/h (0 Bft) SO 135 3,4 C 7,8 C 0,0 km/h (0 Bft)
11.11.2014 05:05 4,2 C 94 % 1012,1 hPa 0,0 l/m 0,0 km/h (0 Bft) SO 135 3,3 C 7,8 C 0,0 km/h (0 Bft)
11.11.2014 05:10 4,1 C 94 % 1012,1 hPa 0,0 l/m 0,0 km/h (0 Bft) SO 135 3,2 C 7,8 C 0,0 km/h (0 Bft)
11.11.2014 05:15 4,1 C 94 % 1012,2 hPa 0,0 l/m 0,0 km/h (0 Bft) SO 135 3,2 C 7,8 C 0,0 km/h (0 Bft)
11.11.2014 05:20 4,1 C 94 % 1012,2 hPa 0,0 l/m 0,0 km/h (0 Bft) SO 135 3,2 C 7,8 C 0,0 km/h (0 Bft)
11.11.2014 05:25 4,2 C 94 % 1012,2 hPa 0,0 l/m 0,0 km/h (0 Bft) SO 135 3,3 C 7,8 C 0,0 km/h (0 Bft)
11.11.2014 05:30 4,2 C 94 % 1012,2 hPa 0,0 l/m 0,0 km/h (0 Bft) SO 135 3,3 C 7,8 C 0,0 km/h (0 Bft)
11.11.2014 05:35 4,2 C 94 % 1011,9 hPa 0,0 l/m 0,0 km/h (0 Bft) SO 135 3,3 C 7,8 C 0,0 km/h (0 Bft)
11.11.2014 05:40 4,2 C 94 % 1011,9 hPa 0,0 l/m 0,0 km/h (0 Bft) SO 135 3,3 C 7,8 C 0,0 km/h (0 Bft)
11.11.2014 05:45 4,2 C 94 % 1011,9 hPa 0,0 l/m 0,0 km/h (0 Bft) SO 135 3,3 C 7,8 C 0,0 km/h (0 Bft)
11.11.2014 05:50 4,1 C 94 % 1011,9 hPa 0,0 l/m 0,0 km/h (0 Bft) SO 135 3,2 C 7,8 C 0,0 km/h (0 Bft)
11.11.2014 05:55 4,1 C 94 % 1011,9 hPa 0,0 l/m 0,0 km/h (0 Bft) SO 135 3,2 C 7,8 C 0,0 km/h (0 Bft)
11.11.2014 06:00 3,9 C 95 % 1011,9 hPa 0,0 l/m 0,0 km/h (0 Bft) SO 135 3,2 C 7,8 C 0,0 km/h (0 Bft)
11.11.2014 06:05 3,9 C 95 % 1011,9 hPa 0,0 l/m 0,0 km/h (0 Bft) SO 135 3,2 C 7,8 C 0,0 km/h (0 Bft)
11.11.2014 06:10 3,8 C 95 % 1011,9 hPa 0,0 l/m 0,0 km/h (0 Bft) SO 135 3,1 C 7,8 C 0,0 km/h (0 Bft)
11.11.2014 06:15 3,8 C 95 % 1012,0 hPa 0,0 l/m 0,0 km/h (0 Bft) SO 135 3,1 C 7,8 C 0,0 km/h (0 Bft)
11.11.2014 06:20 3,8 C 95 % 1012,0 hPa 0,0 l/m 0,0 km/h (0 Bft) SO 135 3,1 C 7,8 C 0,0 km/h (0 Bft)
11.11.2014 06:25 3,7 C 95 % 1012,0 hPa 0,0 l/m 0,0 km/h (0 Bft) SO 135 3,0 C 7,8 C 0,0 km/h (0 Bft)
11.11.2014 06:30 3,8 C 95 % 1012,0 hPa 0,0 l/m 0,0 km/h (0 Bft) SO 135 3,1 C 7,8 C 0,0 km/h (0 Bft)
11.11.2014 06:35 3,7 C 95 % 1011,9 hPa 0,0 l/m 0,0 km/h (0 Bft) SO 135 3,0 C 7,8 C 0,0 km/h (0 Bft)
11.11.2014 06:40 3,6 C 95 % 1011,9 hPa 0,0 l/m 0,0 km/h (0 Bft) SO 135 2,9 C 7,8 C 0,0 km/h (0 Bft)
11.11.2014 06:45 3,6 C 95 % 1011,9 hPa 0,0 l/m 0,0 km/h (0 Bft) SO 135 2,9 C 7,8 C 0,0 km/h (0 Bft)
11.11.2014 06:50 3,6 C 95 % 1011,9 hPa 0,0 l/m 0,0 km/h (0 Bft) SO 135 2,9 C 7,8 C 0,0 km/h (0 Bft)
11.11.2014 06:55 3,6 C 95 % 1011,6 hPa 0,0 l/m 0,0 km/h (0 Bft) SO 135 2,9 C 7,8 C 0,0 km/h (0 Bft)
11.11.2014 07:00 3,5 C 95 % 1011,6 hPa 0,0 l/m 0,0 km/h (0 Bft) SO 135 2,8 C 7,8 C 0,0 km/h (0 Bft)
11.11.2014 07:05 3,5 C 95 % 1011,6 hPa 0,0 l/m 0,0 km/h (0 Bft) SO 135 2,8 C 7,8 C 0,0 km/h (0 Bft)
11.11.2014 07:10 3,5 C 95 % 1011,6 hPa 0,0 l/m 0,0 km/h (0 Bft) SO 135 2,8 C 7,8 C 0,0 km/h (0 Bft)
11.11.2014 07:15 3,5 C 95 % 1011,9 hPa 0,0 l/m 0,0 km/h (0 Bft) SO 135 2,8 C 7,8 C 0,0 km/h (0 Bft)
11.11.2014 07:20 3,5 C 95 % 1011,9 hPa 0,0 l/m 0,0 km/h (0 Bft) SO 135 2,8 C 7,8 C 0,0 km/h (0 Bft)
11.11.2014 07:25 3,5 C 95 % 1011,9 hPa 0,0 l/m 0,0 km/h (0 Bft) SO 135 2,8 C 7,8 C 0,0 km/h (0 Bft)
11.11.2014 07:30 3,5 C 95 % 1011,9 hPa 0,0 l/m 0,0 km/h (0 Bft) SO 135 2,8 C 7,8 C 0,0 km/h (0 Bft)
11.11.2014 07:35 3,5 C 95 % 1011,6 hPa 0,0 l/m 0,0 km/h (0 Bft) SO 135 2,8 C 7,8 C 0,0 km/h (0 Bft)
11.11.2014 07:40 3,6 C 95 % 1011,6 hPa 0,0 l/m 0,0 km/h (0 Bft) SO 135 2,9 C 7,8 C 0,0 km/h (0 Bft)
11.11.2014 07:45 3,6 C 95 % 1011,6 hPa 0,0 l/m 0,0 km/h (0 Bft) SO 135 2,9 C 7,8 C 0,0 km/h (0 Bft)
11.11.2014 07:50 3,7 C 95 % 1011,6 hPa 0,0 l/m 0,0 km/h (0 Bft) SO 135 3,0 C 7,8 C 0,0 km/h (0 Bft)
11.11.2014 07:55 3,7 C 95 % 1011,6 hPa 0,0 l/m 0,0 km/h (0 Bft) SO 135 3,0 C 7,8 C 0,0 km/h (0 Bft)
11.11.2014 08:00 3,8 C 95 % 1011,6 hPa 0,0 l/m 0,0 km/h (0 Bft) SO 135 3,1 C 7,8 C 0,0 km/h (0 Bft)
11.11.2014 08:05 3,8 C 95 % 1011,6 hPa 0,0 l/m 0,0 km/h (0 Bft) SO 135 3,1 C 7,8 C 0,0 km/h (0 Bft)
11.11.2014 08:10 3,8 C 95 % 1011,6 hPa 0,0 l/m 0,0 km/h (0 Bft) SO 135 3,1 C 7,8 C 0,0 km/h (0 Bft)
11.11.2014 08:15 3,9 C 95 % 1011,2 hPa 0,0 l/m 0,0 km/h (0 Bft) SO 135 3,2 C 7,8 C 0,0 km/h (0 Bft)
11.11.2014 08:20 4,0 C 95 % 1011,2 hPa 0,0 l/m 0,0 km/h (0 Bft) SO 135 3,3 C 7,8 C 0,0 km/h (0 Bft)
11.11.2014 08:25 3,9 C 95 % 1011,2 hPa 0,0 l/m 0,0 km/h (0 Bft) SO 135 3,2 C 7,8 C 0,0 km/h (0 Bft)
11.11.2014 08:30 3,9 C 95 % 1011,2 hPa 0,0 l/m 0,0 km/h (0 Bft) SO 135 3,2 C 7,8 C 0,0 km/h (0 Bft)
11.11.2014 08:35 4,0 C 95 % 1011,2 hPa 0,0 l/m 0,0 km/h (0 Bft) SO 135 3,3 C 7,8 C 0,0 km/h (0 Bft)
11.11.2014 08:40 4,0 C 95 % 1011,2 hPa 0,0 l/m 0,0 km/h (0 Bft) SO 135 3,3 C 7,8 C 0,0 km/h (0 Bft)
11.11.2014 08:45 4,1 C 95 % 1011,2 hPa 0,0 l/m 0,0 km/h (0 Bft) SO 135 3,4 C 7,8 C 0,0 km/h (0 Bft)
11.11.2014 08:50 4,1 C 95 % 1011,2 hPa 0,0 l/m 0,0 km/h (0 Bft) SO 135 3,4 C 7,8 C 0,0 km/h (0 Bft)
11.11.2014 08:55 4,2 C 95 % 1011,1 hPa 0,0 l/m 0,0 km/h (0 Bft) SO 135 3,5 C 7,8 C 0,0 km/h (0 Bft)
11.11.2014 09:00 4,2 C 95 % 1011,1 hPa 0,0 l/m 0,0 km/h (0 Bft) SO 135 3,5 C 7,8 C 0,0 km/h (0 Bft)
11.11.2014 09:05 4,2 C 95 % 1011,1 hPa 0,0 l/m 0,0 km/h (0 Bft) SO 135 3,5 C 7,8 C 0,0 km/h (0 Bft)
11.11.2014 09:10 4,4 C 95 % 1011,1 hPa 0,0 l/m 0,0 km/h (0 Bft) SO 135 3,7 C 7,8 C 0,0 km/h (0 Bft)
11.11.2014 09:15 4,5 C 95 % 1010,9 hPa 0,0 l/m 0,0 km/h (0 Bft) SO 135 3,8 C 7,8 C 0,0 km/h (0 Bft)
11.11.2014 09:20 4,6 C 95 % 1010,9 hPa 0,0 l/m 0,0 km/h (0 Bft) SO 135 3,9 C 7,8 C 0,0 km/h (0 Bft)
11.11.2014 09:25 4,6 C 95 % 1010,9 hPa 0,0 l/m 0,0 km/h (0 Bft) SO 135 3,9 C 7,8 C 0,0 km/h (0 Bft)
11.11.2014 09:30 5,0 C 94 % 1010,9 hPa 0,0 l/m 0,0 km/h (0 Bft) SO 135 4,1 C 7,8 C 0,0 km/h (0 Bft)
11.11.2014 09:35 4,9 C 95 % 1010,7 hPa 0,0 l/m 0,0 km/h (0 Bft) SO 135 4,2 C 7,8 C 0,0 km/h (0 Bft)
11.11.2014 09:40 5,3 C 94 % 1010,7 hPa 0,0 l/m 0,0 km/h (0 Bft) SO 135 4,4 C 7,8 C 0,0 km/h (0 Bft)
11.11.2014 09:45 5,4 C 94 % 1010,7 hPa 0,0 l/m 0,0 km/h (0 Bft) SO 135 4,5 C 7,8 C 0,0 km/h (0 Bft)
11.11.2014 09:50 5,6 C 94 % 1010,7 hPa 0,0 l/m 0,0 km/h (0 Bft) SO 135 4,7 C 7,8 C 0,0 km/h (0 Bft)
11.11.2014 09:55 5,7 C 94 % 1010,8 hPa 0,0 l/m 0,0 km/h (0 Bft) SO 135 4,8 C 7,8 C 0,0 km/h (0 Bft)
11.11.2014 10:00 5,7 C 94 % 1010,8 hPa 0,0 l/m 0,0 km/h (0 Bft) SO 135 4,8 C 7,8 C 0,0 km/h (0 Bft)
11.11.2014 10:05 5,7 C 94 % 1010,8 hPa 0,0 l/m 0,0 km/h (0 Bft) SO 135 4,8 C 7,8 C 0,0 km/h (0 Bft)
11.11.2014 10:10 5,5 C 94 % 1010,8 hPa 0,0 l/m 0,0 km/h (0 Bft) SO 135 4,6 C 7,8 C 0,0 km/h (0 Bft)
11.11.2014 10:15 5,6 C 94 % 1010,7 hPa 0,0 l/m 0,0 km/h (0 Bft) SO 135 4,7 C 7,8 C 0,0 km/h (0 Bft)
11.11.2014 10:20 5,6 C 93 % 1010,7 hPa 0,0 l/m 0,0 km/h (0 Bft) SO 135 4,6 C 7,8 C 0,0 km/h (0 Bft)
11.11.2014 10:25 5,7 C 93 % 1010,7 hPa 0,0 l/m 0,0 km/h (0 Bft) SO 135 4,7 C 7,8 C 0,0 km/h (0 Bft)
11.11.2014 10:30 5,7 C 93 % 1010,7 hPa 0,0 l/m 0,0 km/h (0 Bft) SO 135 4,7 C 7,8 C 0,0 km/h (0 Bft)
11.11.2014 10:35 5,7 C 93 % 1010,7 hPa 0,0 l/m 0,0 km/h (0 Bft) SO 135 4,7 C 7,8 C 0,0 km/h (0 Bft)
11.11.2014 10:40 5,8 C 93 % 1010,7 hPa 0,0 l/m 0,0 km/h (0 Bft) SO 135 4,8 C 7,8 C 0,0 km/h (0 Bft)
11.11.2014 10:45 5,9 C 93 % 1010,7 hPa 0,0 l/m 0,0 km/h (0 Bft) SO 135 4,9 C 7,8 C 0,0 km/h (0 Bft)
11.11.2014 10:50 6,0 C 92 % 1010,7 hPa 0,0 l/m 0,0 km/h (0 Bft) SO 135 4,8 C 7,8 C 0,0 km/h (0 Bft)
11.11.2014 10:55 6,1 C 91 % 1010,6 hPa 0,0 l/m 0,0 km/h (0 Bft) SO 135 4,7 C 7,8 C 0,0 km/h (0 Bft)
11.11.2014 11:00 6,1 C 91 % 1010,6 hPa 0,0 l/m 0,0 km/h (0 Bft) SO 135 4,7 C 7,8 C 0,0 km/h (0 Bft)
11.11.2014 11:05 6,0 C 90 % 1010,6 hPa 0,0 l/m 0,0 km/h (0 Bft) SO 135 4,5 C 7,8 C 0,0 km/h (0 Bft)
11.11.2014 11:10 6,1 C 90 % 1010,6 hPa 0,0 l/m 0,0 km/h (0 Bft) SO 135 4,6 C 7,8 C 0,0 km/h (0 Bft)
11.11.2014 11:15 6,4 C 90 % 1010,4 hPa 0,0 l/m 0,0 km/h (0 Bft) SO 135 4,9 C 7,8 C 0,0 km/h (0 Bft)
11.11.2014 11:20 7,0 C 90 % 1010,4 hPa 0,0 l/m 0,0 km/h (0 Bft) SO 135 5,5 C 7,8 C 0,0 km/h (0 Bft)
11.11.2014 11:25 7,0 C 90 % 1010,4 hPa 0,0 l/m 0,0 km/h (0 Bft) SO 135 5,5 C 7,8 C 0,0 km/h (0 Bft)
11.11.2014 11:30 7,0 C 89 % 1010,4 hPa 0,0 l/m 0,0 km/h (0 Bft) SO 135 5,3 C 7,8 C 0,0 km/h (0 Bft)
11.11.2014 11:35 7,2 C 89 % 1010,3 hPa 0,0 l/m 0,0 km/h (0 Bft) SO 135 5,5 C 7,8 C 0,0 km/h (0 Bft)
11.11.2014 11:40 7,7 C 90 % 1010,3 hPa 0,0 l/m 0,0 km/h (0 Bft) SO 135 6,2 C 7,8 C 0,0 km/h (0 Bft)
11.11.2014 11:45 7,5 C 88 % 1010,3 hPa 0,0 l/m 0,0 km/h (0 Bft) SO 135 5,6 C 7,8 C 0,0 km/h (0 Bft)
11.11.2014 11:50 8,0 C 89 % 1010,3 hPa 0,0 l/m 0,0 km/h (0 Bft) SO 135 6,3 C 7,8 C 0,0 km/h (0 Bft)
11.11.2014 11:55 8,1 C 88 % 1010,2 hPa 0,0 l/m 0,0 km/h (0 Bft) SO 135 6,2 C 7,8 C 0,0 km/h (0 Bft)
11.11.2014 12:00 8,1 C 88 % 1010,2 hPa 0,0 l/m 0,0 km/h (0 Bft) SO 135 6,2 C 7,8 C 0,0 km/h (0 Bft)
11.11.2014 12:05 8,2 C 88 % 1010,2 hPa 0,0 l/m 0,0 km/h (0 Bft) SO 135 6,3 C 7,8 C 0,0 km/h (0 Bft)
11.11.2014 12:10 8,4 C 88 % 1010,2 hPa 0,0 l/m 0,0 km/h (0 Bft) SO 135 6,5 C 7,8 C 0,0 km/h (0 Bft)
11.11.2014 12:15 8,3 C 88 % 1009,9 hPa 0,0 l/m 0,0 km/h (0 Bft) SO 135 6,4 C 7,8 C 0,0 km/h (0 Bft)
11.11.2014 12:20 8,3 C 88 % 1009,9 hPa 0,0 l/m 0,0 km/h (0 Bft) SO 135 6,4 C 7,8 C 0,0 km/h (0 Bft)
11.11.2014 12:23 8,5 C 88 % 1009,9 hPa 0,0 l/m 0,0 km/h (0 Bft) SO 135 6,6 C 7,8 C 0,0 km/h (0 Bft)
11.11.2014 12:25 8,5 C 88 % 1009,9 hPa 0,0 l/m 0,0 km/h (0 Bft) SO 135 6,6 C 7,8 C 0,0 km/h (0 Bft)
11.11.2014 12:30 8,8 C 88 % 1009,9 hPa 0,0 l/m 0,0 km/h (0 Bft) SO 135 6,9 C 7,8 C 0,0 km/h (0 Bft)
11.11.2014 12:35 8,8 C 88 % 1009,8 hPa 0,0 l/m 0,0 km/h (0 Bft) SO 135 6,9 C 7,8 C 0,0 km/h (0 Bft)
11.11.2014 12:40 9,1 C 88 % 1009,8 hPa 0,0 l/m 0,0 km/h (0 Bft) SO 135 7,2 C 7,8 C 0,0 km/h (0 Bft)
11.11.2014 12:45 9,3 C 88 % 1009,8 hPa 0,0 l/m 0,0 km/h (0 Bft) SO 135 7,4 C 7,8 C 0,0 km/h (0 Bft)
11.11.2014 12:50 9,3 C 87 % 1009,8 hPa 0,0 l/m 0,0 km/h (0 Bft) SO 135 7,2 C 7,8 C 0,0 km/h (0 Bft)
11.11.2014 12:55 9,3 C 87 % 1009,8 hPa 0,0 l/m 0,0 km/h (0 Bft) SO 135 7,2 C 7,8 C 0,0 km/h (0 Bft)
11.11.2014 13:00 9,5 C 86 % 1009,8 hPa 0,0 l/m 0,0 km/h (0 Bft) SO 135 7,3 C 7,8 C 0,0 km/h (0 Bft)
11.11.2014 13:05 9,5 C 86 % 1009,8 hPa 0,0 l/m 0,0 km/h (0 Bft) SO 135 7,3 C 7,8 C 0,0 km/h (0 Bft)
11.11.2014 13:10 9,6 C 86 % 1009,8 hPa 0,0 l/m 0,0 km/h (0 Bft) SO 135 7,4 C 7,8 C 0,0 km/h (0 Bft)
11.11.2014 13:15 9,9 C 86 % 1009,4 hPa 0,0 l/m 0,0 km/h (0 Bft) SO 135 7,7 C 7,8 C 0,0 km/h (0 Bft)
11.11.2014 13:20 10,2 C 86 % 1009,4 hPa 0,0 l/m 0,0 km/h (0 Bft) SO 135 8,0 C 7,8 C 0,0 km/h (0 Bft)
11.11.2014 13:25 10,5 C 86 % 1009,4 hPa 0,0 l/m 0,0 km/h (0 Bft) SO 135 8,3 C 7,8 C 0,0 km/h (0 Bft)
11.11.2014 13:30 10,6 C 85 % 1009,4 hPa 0,0 l/m 0,0 km/h (0 Bft) SO 135 8,2 C 7,8 C 0,0 km/h (0 Bft)
11.11.2014 13:35 10,6 C 85 % 1009,4 hPa 0,0 l/m 0,0 km/h (0 Bft) SO 135 8,2 C 7,8 C 0,0 km/h (0 Bft)
11.11.2014 13:40 11,1 C 85 % 1009,4 hPa 0,0 l/m 0,0 km/h (0 Bft) SO 135 8,7 C 7,8 C 0,0 km/h (0 Bft)
11.11.2014 13:45 11,4 C 85 % 1009,4 hPa 0,0 l/m 0,0 km/h (0 Bft) SO 135 9,0 C 7,8 C 0,0 km/h (0 Bft)
11.11.2014 13:50 12,3 C 84 % 1009,4 hPa 0,0 l/m 0,0 km/h (0 Bft) SO 135 9,7 C 7,8 C 0,0 km/h (0 Bft)
11.11.2014 13:55 12,7 C 84 % 1009,4 hPa 0,0 l/m 0,0 km/h (0 Bft) SO 135 10,1 C 7,8 C 0,0 km/h (0 Bft)
11.11.2014 14:00 14,1 C 76 % 1009,4 hPa 0,0 l/m 0,0 km/h (0 Bft) SO 135 9,9 C 7,8 C 0,0 km/h (0 Bft)
11.11.2014 14:05 15,1 C 75 % 1009,4 hPa 0,0 l/m 0,0 km/h (0 Bft) SO 135 10,7 C 7,8 C 0,0 km/h (0 Bft)
11.11.2014 14:10 15,7 C 70 % 1009,4 hPa 0,0 l/m 0,0 km/h (0 Bft) SO 135 10,2 C 7,8 C 0,0 km/h (0 Bft)
11.11.2014 14:15 15,9 C 69 % 1009,6 hPa 0,0 l/m 0,0 km/h (0 Bft) SO 135 10,2 C 7,8 C 0,0 km/h (0 Bft)
11.11.2014 14:20 15,8 C 68 % 1009,6 hPa 0,0 l/m 0,0 km/h (0 Bft) SO 135 9,9 C 7,8 C 0,0 km/h (0 Bft)
11.11.2014 14:25 15,3 C 68 % 1009,6 hPa 0,0 l/m 0,0 km/h (0 Bft) SO 135 9,4 C 7,8 C 0,0 km/h (0 Bft)
11.11.2014 14:30 14,9 C 69 % 1009,6 hPa 0,0 l/m 0,0 km/h (0 Bft) SO 135 9,3 C 7,8 C 0,0 km/h (0 Bft)
11.11.2014 14:35 14,6 C 69 % 1009,6 hPa 0,0 l/m 0,0 km/h (0 Bft) SO 135 9,0 C 7,8 C 0,0 km/h (0 Bft)
11.11.2014 14:40 14,4 C 69 % 1009,6 hPa 0,0 l/m 0,0 km/h (0 Bft) SO 135 8,8 C 7,8 C 0,0 km/h (0 Bft)
11.11.2014 14:45 14,3 C 70 % 1009,6 hPa 0,0 l/m 0,0 km/h (0 Bft) SO 135 8,9 C 7,8 C 0,0 km/h (0 Bft)
11.11.2014 14:50 14,1 C 71 % 1009,6 hPa 0,0 l/m 0,0 km/h (0 Bft) SO 135 8,9 C 7,8 C 0,0 km/h (0 Bft)
11.11.2014 14:55 14,0 C 72 % 1009,2 hPa 0,0 l/m 0,0 km/h (0 Bft) SO 135 9,0 C 7,8 C 0,0 km/h (0 Bft)
11.11.2014 15:00 13,8 C 70 % 1009,2 hPa 0,0 l/m 0,0 km/h (0 Bft) SO 135 8,4 C 7,8 C 0,0 km/h (0 Bft)
11.11.2014 15:05 13,7 C 69 % 1009,2 hPa 0,0 l/m 0,0 km/h (0 Bft) SO 135 8,1 C 7,8 C 0,0 km/h (0 Bft)
11.11.2014 15:10 13,6 C 68 % 1009,2 hPa 0,0 l/m 0,0 km/h (0 Bft) SO 135 7,8 C 7,8 C 0,0 km/h (0 Bft)
11.11.2014 15:15 13,6 C 69 % 1009,1 hPa 0,0 l/m 0,0 km/h (0 Bft) SO 135 8,0 C 7,8 C 0,0 km/h (0 Bft)
11.11.2014 15:20 13,3 C 69 % 1009,1 hPa 0,0 l/m 0,0 km/h (0 Bft) SO 135 7,7 C 7,8 C 0,0 km/h (0 Bft)
11.11.2014 15:23 13,2 C 69 % 1009,1 hPa 0,0 l/m 0,0 km/h (0 Bft) SO 135 7,6 C 7,8 C 0,0 km/h (0 Bft)
11.11.2014 15:25 13,2 C 69 % 1009,1 hPa 0,0 l/m 0,0 km/h (0 Bft) SO 135 7,6 C 7,8 C 0,0 km/h (0 Bft)
11.11.2014 15:30 12,9 C 71 % 1009,1 hPa 0,0 l/m 0,0 km/h (0 Bft) SO 135 7,8 C 7,8 C 0,0 km/h (0 Bft)
11.11.2014 15:35 13,0 C 68 % 1008,8 hPa 0,0 l/m 0,0 km/h (0 Bft) SO 135 7,2 C 7,8 C 0,0 km/h (0 Bft)
11.11.2014 15:40 13,0 C 68 % 1008,8 hPa 0,0 l/m 0,0 km/h (0 Bft) SO 135 7,2 C 7,8 C 0,0 km/h (0 Bft)
11.11.2014 15:45 12,9 C 69 % 1008,8 hPa 0,0 l/m 0,0 km/h (0 Bft) SO 135 7,4 C 7,8 C 0,0 km/h (0 Bft)
11.11.2014 15:50 13,0 C 67 % 1008,8 hPa 0,0 l/m 0,0 km/h (0 Bft) SO 135 7,0 C 7,8 C 0,0 km/h (0 Bft)
11.11.2014 15:55 12,9 C 67 % 1008,4 hPa 0,0 l/m 0,0 km/h (0 Bft) SO 135 6,9 C 7,8 C 0,0 km/h (0 Bft)
11.11.2014 16:00 12,9 C 66 % 1008,4 hPa 0,0 l/m 0,0 km/h (0 Bft) SO 135 6,7 C 7,8 C 0,0 km/h (0 Bft)
11.11.2014 16:05 12,6 C 66 % 1008,4 hPa 0,0 l/m 0,0 km/h (0 Bft) SO 135 6,4 C 7,8 C 0,0 km/h (0 Bft)
11.11.2014 16:10 12,5 C 64 % 1008,4 hPa 0,0 l/m 0,0 km/h (0 Bft) SO 135 5,9 C 7,8 C 0,0 km/h (0 Bft)
11.11.2014 16:15 12,7 C 63 % 1008,0 hPa 0,0 l/m 0,0 km/h (0 Bft) SO 135 5,8 C 7,8 C 0,0 km/h (0 Bft)
11.11.2014 16:20 12,6 C 62 % 1008,0 hPa 0,0 l/m 0,0 km/h (0 Bft) SO 135 5,5 C 7,8 C 0,0 km/h (0 Bft)
11.11.2014 16:25 12,6 C 62 % 1008,0 hPa 0,0 l/m 0,0 km/h (0 Bft) SO 135 5,5 C 7,8 C 0,0 km/h (0 Bft)
11.11.2014 16:30 12,3 C 63 % 1008,0 hPa 0,0 l/m 0,0 km/h (0 Bft) SO 135 5,5 C 7,8 C 0,0 km/h (0 Bft)
11.11.2014 16:35 12,3 C 63 % 1007,9 hPa 0,0 l/m 0,0 km/h (0 Bft) SO 135 5,5 C 7,8 C 0,0 km/h (0 Bft)
11.11.2014 16:40 12,2 C 63 % 1007,9 hPa 0,0 l/m 0,0 km/h (0 Bft) SO 135 5,4 C 7,8 C 0,0 km/h (0 Bft)
11.11.2014 16:45 12,3 C 63 % 1007,9 hPa 0,0 l/m 0,0 km/h (0 Bft) SO 135 5,5 C 7,8 C 0,0 km/h (0 Bft)
11.11.2014 16:50 12,2 C 63 % 1007,9 hPa 0,0 l/m 0,0 km/h (0 Bft) SO 135 5,4 C 7,8 C 0,0 km/h (0 Bft)
11.11.2014 16:55 12,1 C 63 % 1007,8 hPa 0,0 l/m 0,0 km/h (0 Bft) SO 135 5,3 C 7,8 C 0,0 km/h (0 Bft)
11.11.2014 17:00 11,1 C 66 % 1007,8 hPa 0,0 l/m 0,0 km/h (0 Bft) SO 135 5,0 C 7,8 C 0,0 km/h (0 Bft)
11.11.2014 17:05 10,9 C 66 % 1007,8 hPa 0,0 l/m 0,0 km/h (0 Bft) SO 135 4,8 C 7,8 C 0,0 km/h (0 Bft)
11.11.2014 17:10 11,6 C 66 % 1007,8 hPa 0,0 l/m 0,0 km/h (0 Bft) SO 135 5,5 C 7,8 C 0,0 km/h (0 Bft)
11.11.2014 17:15 11,7 C 65 % 1007,9 hPa 0,0 l/m 0,0 km/h (0 Bft) SO 135 5,3 C 7,8 C 0,0 km/h (0 Bft)
11.11.2014 17:20 11,7 C 65 % 1007,9 hPa 0,0 l/m 0,0 km/h (0 Bft) SO 135 5,3 C 7,8 C 0,0 km/h (0 Bft)
11.11.2014 17:25 11,4 C 65 % 1007,9 hPa 0,0 l/m 0,0 km/h (0 Bft) SO 135 5,1 C 7,8 C 0,0 km/h (0 Bft)
11.11.2014 17:30 11,5 C 65 % 1007,9 hPa 0,0 l/m 0,0 km/h (0 Bft) SO 135 5,2 C 7,8 C 0,0 km/h (0 Bft)
11.11.2014 17:35 11,2 C 66 % 1007,4 hPa 0,0 l/m 0,0 km/h (0 Bft) SO 135 5,1 C 7,8 C 0,0 km/h (0 Bft)
11.11.2014 17:40 11,1 C 66 % 1007,4 hPa 0,0 l/m 0,0 km/h (0 Bft) SO 135 5,0 C 7,8 C 0,0 km/h (0 Bft)
11.11.2014 17:45 10,8 C 66 % 1007,4 hPa 0,0 l/m 0,0 km/h (0 Bft) SO 135 4,7 C 7,8 C 0,0 km/h (0 Bft)
11.11.2014 17:50 10,4 C 67 % 1007,4 hPa 0,0 l/m 0,0 km/h (0 Bft) SO 135 4,5 C 7,8 C 0,0 km/h (0 Bft)
11.11.2014 17:55 10,1 C 68 % 1007,8 hPa 0,0 l/m 0,0 km/h (0 Bft) SO 135 4,5 C 7,8 C 0,0 km/h (0 Bft)
11.11.2014 18:00 9,8 C 69 % 1007,8 hPa 0,0 l/m 0,0 km/h (0 Bft) SO 135 4,4 C 7,8 C 0,0 km/h (0 Bft)
11.11.2014 18:05 10,0 C 70 % 1007,8 hPa 0,0 l/m 0,0 km/h (0 Bft) SO 135 4,8 C 7,8 C 0,0 km/h (0 Bft)
11.11.2014 18:10 10,7 C 69 % 1007,8 hPa 0,0 l/m 0,0 km/h (0 Bft) SO 135 5,2 C 7,8 C 0,0 km/h (0 Bft)
11.11.2014 18:15 10,5 C 69 % 1007,8 hPa 0,0 l/m 0,0 km/h (0 Bft) SO 135 5,1 C 7,8 C 0,0 km/h (0 Bft)
11.11.2014 18:20 10,5 C 68 % 1007,8 hPa 0,0 l/m 0,0 km/h (0 Bft) SO 135 4,8 C 7,8 C 0,0 km/h (0 Bft)
11.11.2014 18:23 10,6 C 69 % 1007,8 hPa 0,0 l/m 0,0 km/h (0 Bft) SO 135 5,2 C 7,8 C 0,0 km/h (0 Bft)
11.11.2014 18:25 10,6 C 69 % 1007,8 hPa 0,0 l/m 0,0 km/h (0 Bft) SO 135 5,2 C 7,8 C 0,0 km/h (0 Bft)
11.11.2014 18:30 10,4 C 68 % 1007,8 hPa 0,0 l/m 0,0 km/h (0 Bft) SO 135 4,8 C 7,8 C 0,0 km/h (0 Bft)
11.11.2014 18:35 10,0 C 69 % 1007,8 hPa 0,0 l/m 0,0 km/h (0 Bft) SO 135 4,6 C 7,8 C 0,0 km/h (0 Bft)
11.11.2014 18:40 9,9 C 69 % 1007,8 hPa 0,0 l/m 0,0 km/h (0 Bft) SO 135 4,5 C 7,8 C 0,0 km/h (0 Bft)
11.11.2014 18:45 10,0 C 69 % 1007,8 hPa 0,0 l/m 0,0 km/h (0 Bft) SO 135 4,6 C 7,8 C 0,0 km/h (0 Bft)
11.11.2014 18:50 9,9 C 69 % 1007,8 hPa 0,0 l/m 0,0 km/h (0 Bft) SO 135 4,5 C 7,8 C 0,0 km/h (0 Bft)
11.11.2014 18:55 9,8 C 69 % 1007,8 hPa 0,0 l/m 0,0 km/h (0 Bft) SO 135 4,4 C 7,8 C 0,0 km/h (0 Bft)
11.11.2014 19:00 10,2 C 69 % 1007,8 hPa 0,0 l/m 0,0 km/h (0 Bft) SO 135 4,8 C 7,8 C 0,0 km/h (0 Bft)
11.11.2014 19:05 10,2 C 69 % 1007,8 hPa 0,0 l/m 0,0 km/h (0 Bft) SO 135 4,8 C 7,8 C 0,0 km/h (0 Bft)
11.11.2014 19:10 9,9 C 69 % 1007,8 hPa 0,0 l/m 0,0 km/h (0 Bft) SO 135 4,5 C 7,8 C 0,0 km/h (0 Bft)
11.11.2014 19:15 10,0 C 69 % 1007,6 hPa 0,0 l/m 0,0 km/h (0 Bft) SO 135 4,6 C 7,8 C 0,0 km/h (0 Bft)
11.11.2014 19:20 10,0 C 69 % 1007,6 hPa 0,0 l/m 0,0 km/h (0 Bft) SO 135 4,6 C 7,8 C 0,0 km/h (0 Bft)
11.11.2014 19:25 9,9 C 69 % 1007,6 hPa 0,0 l/m 0,0 km/h (0 Bft) SO 135 4,5 C 7,8 C 0,0 km/h (0 Bft)
11.11.2014 19:30 9,8 C 69 % 1007,6 hPa 0,0 l/m 0,0 km/h (0 Bft) SO 135 4,4 C 7,8 C 0,0 km/h (0 Bft)
11.11.2014 19:35 9,7 C 70 % 1007,6 hPa 0,0 l/m 0,0 km/h (0 Bft) SO 135 4,5 C 7,8 C 0,0 km/h (0 Bft)
11.11.2014 19:40 9,1 C 70 % 1007,6 hPa 0,0 l/m 0,0 km/h (0 Bft) SO 135 3,9 C 7,8 C 0,0 km/h (0 Bft)
11.11.2014 19:45 9,1 C 70 % 1007,6 hPa 0,0 l/m 0,0 km/h (0 Bft) SO 135 3,9 C 7,8 C 0,0 km/h (0 Bft)
11.11.2014 19:50 8,9 C 71 % 1007,6 hPa 0,0 l/m 0,0 km/h (0 Bft) SO 135 3,9 C 7,8 C 0,0 km/h (0 Bft)
11.11.2014 19:55 8,8 C 71 % 1007,6 hPa 0,0 l/m 0,0 km/h (0 Bft) SO 135 3,8 C 7,8 C 0,0 km/h (0 Bft)
11.11.2014 20:00 8,5 C 71 % 1007,6 hPa 0,0 l/m 0,0 km/h (0 Bft) SO 135 3,5 C 7,8 C 0,0 km/h (0 Bft)
11.11.2014 20:05 8,7 C 72 % 1007,6 hPa 0,0 l/m 0,0 km/h (0 Bft) SO 135 3,9 C 7,8 C 0,0 km/h (0 Bft)
11.11.2014 20:10 8,6 C 71 % 1007,6 hPa 0,0 l/m 0,0 km/h (0 Bft) SO 135 3,6 C 7,8 C 0,0 km/h (0 Bft)
11.11.2014 20:15 8,6 C 72 % 1007,4 hPa 0,0 l/m 0,0 km/h (0 Bft) SO 135 3,8 C 7,8 C 0,0 km/h (0 Bft)
11.11.2014 20:20 8,6 C 72 % 1007,4 hPa 0,0 l/m 0,0 km/h (0 Bft) SO 135 3,8 C 7,8 C 0,0 km/h (0 Bft)
11.11.2014 20:25 8,5 C 72 % 1007,4 hPa 0,0 l/m 0,0 km/h (0 Bft) SO 135 3,7 C 7,8 C 0,0 km/h (0 Bft)
11.11.2014 20:30 8,8 C 72 % 1007,4 hPa 0,0 l/m 0,0 km/h (0 Bft) SO 135 4,0 C 7,8 C 0,0 km/h (0 Bft)
11.11.2014 20:35 8,4 C 71 % 1007,2 hPa 0,0 l/m 0,0 km/h (0 Bft) SO 135 3,5 C 7,8 C 0,0 km/h (0 Bft)
11.11.2014 20:40 8,4 C 72 % 1007,2 hPa 0,0 l/m 0,0 km/h (0 Bft) SO 135 3,7 C 7,8 C 0,0 km/h (0 Bft)
11.11.2014 20:45 8,3 C 72 % 1007,2 hPa 0,0 l/m 0,0 km/h (0 Bft) SO 135 3,6 C 7,8 C 0,0 km/h (0 Bft)
11.11.2014 20:50 8,0 C 72 % 1007,2 hPa 0,0 l/m 0,0 km/h (0 Bft) SO 135 3,3 C 7,8 C 0,0 km/h (0 Bft)
11.11.2014 20:55 7,9 C 73 % 1007,3 hPa 0,0 l/m 0,0 km/h (0 Bft) SO 135 3,4 C 7,8 C 0,0 km/h (0 Bft)
11.11.2014 21:00 7,5 C 73 % 1007,3 hPa 0,0 l/m 0,0 km/h (0 Bft) SO 135 3,0 C 7,8 C 0,0 km/h (0 Bft)
11.11.2014 21:05 7,3 C 74 % 1007,3 hPa 0,0 l/m 0,0 km/h (0 Bft) SO 135 3,0 C 7,8 C 0,0 km/h (0 Bft)
11.11.2014 21:10 7,9 C 76 % 1007,3 hPa 0,0 l/m 0,0 km/h (0 Bft) SO 135 3,9 C 7,8 C 0,0 km/h (0 Bft)
11.11.2014 21:15 8,0 C 75 % 1007,2 hPa 0,0 l/m 0,0 km/h (0 Bft) SO 135 3,8 C 7,8 C 0,0 km/h (0 Bft)
11.11.2014 21:20 7,6 C 75 % 1007,2 hPa 0,0 l/m 0,0 km/h (0 Bft) SO 135 3,5 C 7,8 C 0,0 km/h (0 Bft)
11.11.2014 21:25 7,7 C 76 % 1007,2 hPa 0,0 l/m 0,0 km/h (0 Bft) SO 135 3,7 C 7,8 C 0,0 km/h (0 Bft)
11.11.2014 21:30 7,4 C 76 % 1007,2 hPa 0,0 l/m 0,0 km/h (0 Bft) SO 135 3,5 C 7,8 C 0,0 km/h (0 Bft)
11.11.2014 21:35 7,0 C 76 % 1007,2 hPa 0,0 l/m 0,0 km/h (0 Bft) SO 135 3,1 C 7,8 C 0,0 km/h (0 Bft)
11.11.2014 21:40 6,6 C 77 % 1007,2 hPa 0,0 l/m 0,0 km/h (0 Bft) SO 135 2,9 C 7,8 C 0,0 km/h (0 Bft)
11.11.2014 21:45 7,1 C 78 % 1007,2 hPa 0,0 l/m 0,0 km/h (0 Bft) SO 135 3,5 C 7,8 C 0,0 km/h (0 Bft)
11.11.2014 21:50 7,5 C 78 % 1007,2 hPa 0,0 l/m 0,0 km/h (0 Bft) SO 135 3,9 C 7,8 C 0,0 km/h (0 Bft)
11.11.2014 21:55 7,2 C 78 % 1007,1 hPa 0,0 l/m 0,0 km/h (0 Bft) SO 135 3,6 C 7,8 C 0,0 km/h (0 Bft)
11.11.2014 22:00 6,8 C 78 % 1007,1 hPa 0,0 l/m 0,0 km/h (0 Bft) SO 135 3,2 C 7,8 C 0,0 km/h (0 Bft)
11.11.2014 22:05 6,6 C 78 % 1007,1 hPa 0,0 l/m 0,0 km/h (0 Bft) SO 135 3,0 C 7,8 C 0,0 km/h (0 Bft)
11.11.2014 22:10 6,5 C 79 % 1007,1 hPa 0,0 l/m 0,0 km/h (0 Bft) SO 135 3,1 C 7,8 C 0,0 km/h (0 Bft)
11.11.2014 22:15 6,7 C 79 % 1007,0 hPa 0,0 l/m 0,0 km/h (0 Bft) SO 135 3,3 C 7,8 C 0,0 km/h (0 Bft)
11.11.2014 22:20 6,8 C 79 % 1007,0 hPa 0,0 l/m 0,0 km/h (0 Bft) SO 135 3,4 C 7,8 C 0,0 km/h (0 Bft)
11.11.2014 22:25 6,6 C 79 % 1007,0 hPa 0,0 l/m 0,0 km/h (0 Bft) SO 135 3,2 C 7,8 C 0,0 km/h (0 Bft)
11.11.2014 22:30 6,5 C 80 % 1007,0 hPa 0,0 l/m 0,0 km/h (0 Bft) SO 135 3,3 C 7,8 C 0,0 km/h (0 Bft)
11.11.2014 22:35 6,7 C 80 % 1006,6 hPa 0,0 l/m 0,0 km/h (0 Bft) SO 135 3,5 C 7,8 C 0,0 km/h (0 Bft)
11.11.2014 22:40 7,0 C 80 % 1006,6 hPa 0,0 l/m 0,0 km/h (0 Bft) SO 135 3,8 C 7,8 C 0,0 km/h (0 Bft)
11.11.2014 22:45 7,0 C 80 % 1006,6 hPa 0,0 l/m 0,0 km/h (0 Bft) SO 135 3,8 C 7,8 C 0,0 km/h (0 Bft)
11.11.2014 22:50 7,2 C 80 % 1006,6 hPa 0,0 l/m 0,0 km/h (0 Bft) SO 135 4,0 C 7,8 C 0,0 km/h (0 Bft)
11.11.2014 22:55 7,6 C 80 % 1006,7 hPa 0,0 l/m 0,0 km/h (0 Bft) SO 135 4,4 C 7,8 C 0,0 km/h (0 Bft)
11.11.2014 23:00 7,6 C 79 % 1006,7 hPa 0,0 l/m 0,0 km/h (0 Bft) SO 135 4,2 C 7,8 C 0,0 km/h (0 Bft)
11.11.2014 23:05 7,4 C 79 % 1006,7 hPa 0,0 l/m 0,0 km/h (0 Bft) SO 135 4,0 C 7,8 C 0,0 km/h (0 Bft)
11.11.2014 23:10 7,4 C 79 % 1006,7 hPa 0,0 l/m 0,0 km/h (0 Bft) SO 135 4,0 C 7,8 C 0,0 km/h (0 Bft)
11.11.2014 23:15 7,2 C 79 % 1006,6 hPa 0,0 l/m 0,0 km/h (0 Bft) SO 135 3,8 C 7,8 C 0,0 km/h (0 Bft)
11.11.2014 23:20 7,3 C 79 % 1006,6 hPa 0,0 l/m 0,0 km/h (0 Bft) SO 135 3,9 C 7,8 C 0,0 km/h (0 Bft)
11.11.2014 23:25 7,2 C 79 % 1006,6 hPa 0,0 l/m 0,0 km/h (0 Bft) SO 135 3,8 C 7,8 C 0,0 km/h (0 Bft)
11.11.2014 23:30 7,3 C 79 % 1006,6 hPa 0,0 l/m 0,0 km/h (0 Bft) SO 135 3,9 C 7,8 C 0,0 km/h (0 Bft)
11.11.2014 23:35 7,4 C 79 % 1006,5 hPa 0,0 l/m 0,0 km/h (0 Bft) SO 135 4,0 C 7,8 C 0,0 km/h (0 Bft)
11.11.2014 23:40 7,3 C 79 % 1006,5 hPa 0,0 l/m 0,0 km/h (0 Bft) SO 135 3,9 C 7,8 C 0,0 km/h (0 Bft)
11.11.2014 23:45 7,5 C 79 % 1006,5 hPa 0,0 l/m 0,0 km/h (0 Bft) SO 135 4,1 C 7,8 C 0,0 km/h (0 Bft)
11.11.2014 23:50 7,5 C 79 % 1006,5 hPa 0,0 l/m 0,0 km/h (0 Bft) SO 135 4,1 C 7,8 C 0,0 km/h (0 Bft)
11.11.2014 23:55 8,0 C 79 % 1006,4 hPa 0,0 l/m 0,0 km/h (0 Bft) SO 135 4,6 C 7,8 C 0,0 km/h (0 Bft)
_ Min-Zeit 07:35 16:25 23:55 - 23:55 - - 00:50 23:55 23:55
Minimum _ 3,5 C 62 % 1006,4 hPa - 0,0 km/h (0 Bft) - - 2,7 C 7,8 C 0,0 km/h (0 Bft)
_ Max-Zeit 14:15 09:35 00:30 23:55 23:55 - - 14:05 23:55 23:55
Maximum _ 15,9 C 95 % 1013,4 hPa 0,0 l/m 0,0 km/h
SO (0 Bft)
- - 10,7 C 7,8 C 0,0 km/h
SO (0 Bft)
Durchschnitt _ 7,3 C 84 % 1009,9 hPa #0,0 l/m 0,0 km/h (0 Bft) - - - 4,5 C 7,8 C 0,0 km/h (0 Bft)